La Nava - Corral De Ayllón Airport

Jump to: basic info | weather | comments

Related pages: nearby airports | nearby navaids | notams | map

Basic information (top)

Codes: LECA
Location: lon 41.410801, lat -3.448330, elev 3,280 ft / 1,000 m msl
Status: small_airport

Weather (top)

Current conditions for Torrejón Airport 55nm (102km) S (rec'd 2014/08/01 11:00Z):

LETO 011100Z 22015KT 190V260 CAVOK 28/09 Q1012 NOSIG

Airport forecast for Torrejón Airport 55nm (102km) S (rec'd 2014/08/01 06:30Z):

TAF LETO 010500Z 0106/0206 17006KT CAVOK TX32/0115Z TN18/0205Z 
      BECMG 0107/0109 23012KT 
      TEMPO 0110/0120 23015G27KT PROB40 
      TEMPO 0114/0120 FEW045TCU SCT050 
      BECMG 0121/0123 29010KT 
      BECMG 0200/0202 VRB04KT

Latest comments (top)

No comments yet for La Nava - Corral De Ayllón Airport

More... (top)

See also NOTAMs and nearby airports and navaids, or visit the La Nava - Corral De Ayllón Airport page at the main OurAirports website..